Regional Weather Roundup
Issued by NWS

Home | Current Version | Previous Version | Text Only | Print | Product List | Glossary Off
Versions: 1 2 3 4 5 6 7 8 9 10 11 12 13 14 15 16 17 18 19 20 21 22 23 24 25 26 27 28 29 30 31 32 33 34 35 36 37 38 39 40 41 42 43 44 45 46 47 48 49 50

000
ASUS43 KIND 252359
RWRIN

WEATHER ROUNDUP FOR INDIANA
NATIONAL WEATHER SERVICE INDIANAPOLIS IN
700 PM EST SUN JAN 25 2015

NOTE: "FAIR" INDICATES FEW OR NO CLOUDS BELOW 12,000 FEET WITH NO
SIGNIFICANT WEATHER AND/OR OBSTRUCTIONS TO VISIBILITY.

* - STATION DOES NOT REPORT WEATHER SUCH AS PRECIPITATION OR FOG.

+ - STATION NOT QUALITY CONTROLLED BY THE NATIONAL WEATHER SERVICE.
    USE DATA WITH CAUTION...ESPECIALLY DEWPOINT AND RELATIVE
    HUMIDITY OBSERVATIONS.

INZ001>003-010>013-019-020-260100-
NORTHWEST INDIANA

CITY           SKY/WX    TMP DP  RH WIND       PRES   REMARKS
GARY /AIRPORT/ CLOUDY    28  19  69 N14G29    29.93R WCI  17
VALPARAISO     NOT AVBL

$$

LMZ046-743>745-260100-
SOUTHERN LAKE MICHIGAN

STATION/POSITION TIME  TEMP WIND        PRES
                       AIR  DIR/SP/G
                 (UTC) (F)  (DEG/KT/KT) (MB)
MICHIGAN CITY    2300   25   20/ 22/ 23   N/A

$$

INZ004-005-014>016-021>024-260100-
NORTH CENTRAL INDIANA

CITY           SKY/WX    TMP DP  RH WIND       PRES   REMARKS
GOSHEN         LGT SNOW  24  20  84 NE14G24   29.88R FOG     WCI  12
6HR MIN TEMP:  24; 6HR MAX TEMP:  31; 6HR PCP:  0.01;

SOUTH BEND     CLOUDY    24  19  81 NE12      29.91R WCI  13
6HR MIN TEMP:  24; 6HR MAX TEMP:  30; 6HR PCP:  0.07;


$$

INZ006>009-017-018-025>027-260100-
NORTHEAST INDIANA

CITY           SKY/WX    TMP DP  RH WIND       PRES   REMARKS
ANGOLA *+      CLOUDY    21  18  86 NE10      29.87R WCI  10
FORT WAYNE     LGT SNOW  21  18  88 NE18G29   29.85R FOG     WCI   6
6HR MIN TEMP:  21; 6HR MAX TEMP:  28; 6HR PCP:  0.10;


$$

INZ028-029-035-036-043>045-051>053-260100-
WEST CENTRAL INDIANA

CITY           SKY/WX    TMP DP  RH WIND       PRES   REMARKS
GREENCASTLE +  CLOUDY    32  28  86 NE16      29.72R WCI  21
LAFAYETTE      FLURRIES  27  23  85 NE16G24   29.82R WCI  15
6HR MIN TEMP:  27; 6HR MAX TEMP:  33; 6HR PCP:  0.03;

TERRE HAUTE    CLOUDY    35  32  88 NE15      29.72R WCI  25
6HR MIN TEMP:  35; 6HR MAX TEMP:  39; 6HR PCP:  0.09;


$$

INZ030>032-037>040-046>048-054>057-064-065-260100-
CENTRAL INDIANA

CITY           SKY/WX    TMP DP  RH WIND       PRES   REMARKS
INDIANAPOLIS   LGT SNOW  28  27  96 NE17      29.72R FOG     WCI  16
6HR MIN TEMP:  28; 6HR MAX TEMP:  37; 6HR PCP:  0.04;

-EAGLE CREEK   LGT SNOW  28  25  88 NE12G24   29.73R FOG     WCI  18
6HR MIN TEMP:  28; 6HR MAX TEMP:  37; 6HR PCP:  0.04;

KOKOMO *+      CLOUDY    25  18  74 E23G31    29.81R WCI  10
MT COMFORT *+  CLOUDY    28  28 100 NE20      29.74R WCI  15
SHELBYVILLE    LGT SNOW  34  31  88 N9        29.70R FOG     WCI  27
6HR MIN TEMP:  34; 6HR MAX TEMP:  39; 6HR PCP:  0.05;


$$

INZ033-034-041-042-049-050-058-059-260100-
EAST CENTRAL INDIANA

CITY           SKY/WX    TMP DP  RH WIND       PRES   REMARKS
MUNCIE         LGT SNOW  24  20  84 NE17G25   29.77R FOG     WCI  11
6HR MIN TEMP:  24; 6HR MAX TEMP:  35; 6HR PCP:  0.14;


$$

INZ060-061-067>069-081>083-085>088-260100-
SOUTHWEST INDIANA

CITY           SKY/WX    TMP DP  RH WIND       PRES   REMARKS
EVANSVILLE     LGT RAIN  42  39  89 W3        29.66R
6HR MIN TEMP:  41; 6HR MAX TEMP:  43; 6HR PCP:  0.27;

HUNTINGBURG *+ CLOUDY    39  36  87 W6        29.67R
6HR MIN TEMP:  39; 6HR MAX TEMP:  41; 6HR PCP:  0.14;


$$

INZ062-063-066-070>080-084-089>092-260100-
SOUTH CENTRAL AND SOUTHEAST INDIANA

CITY           SKY/WX    TMP DP  RH WIND       PRES   REMARKS
BLOOMINGTON    LGT RAIN  37  36  96 NE7       29.68R
6HR MIN TEMP:  37; 6HR MAX TEMP:  39; 6HR PCP:  0.08;

SEYMOUR +      LGT RAIN  39  39 100 CALM      29.68R

$$




USA.gov is the U.S. government's official web portal to all federal, state and local government web resources and services.